2016-06-26 00:00:17 r, 17.99m,0000000005Hz,0000081918c,0000000.178s, 031.9C,00002195
2016-06-26 00:10:17 r, 18.70m,0000000003Hz,0000157444c,0000000.342s, 031.5C,00002195
2016-06-26 00:20:17 r, 17.30m,0000000010Hz,0000043136c,0000000.094s, 031.5C,00002195
2016-06-26 00:30:17 r, 18.74m,0000000002Hz,0000162226c,0000000.352s, 031.5C,00002195
2016-06-26 00:40:17 r, 18.75m,0000000002Hz,0000164889c,0000000.358s, 031.2C,00002195
2016-06-26 00:50:19 r, 18.75m,0000000003Hz,0000165027c,0000000.358s, 031.2C,00002195
2016-06-26 01:00:17 r, 18.75m,0000000003Hz,0000164252c,0000000.356s, 030.9C,00002195
2016-06-26 01:10:17 r, 18.75m,0000000003Hz,0000164292c,0000000.357s, 030.9C,00002195
2016-06-26 01:20:17 r, 18.75m,0000000003Hz,0000164270c,0000000.356s, 030.6C,00002195
2016-06-26 01:30:17 r, 18.61m,0000000003Hz,0000145629c,0000000.316s, 030.6C,00002195
2016-06-26 01:40:17 r, 18.40m,0000000004Hz,0000119152c,0000000.259s, 030.6C,00002195
2016-06-26 01:50:18 r, 16.80m,0000000017Hz,0000027382c,0000000.059s, 030.2C,00002195
2016-06-26 02:00:18 r, 18.51m,0000000003Hz,0000131318c,0000000.285s, 030.2C,00002195
2016-06-26 02:10:17 r, 18.62m,0000000003Hz,0000146890c,0000000.319s, 030.6C,00002195
2016-06-26 02:20:18 r, 18.64m,0000000003Hz,0000148764c,0000000.323s, 030.2C,00002195
2016-06-26 02:30:18 r, 18.68m,0000000003Hz,0000154320c,0000000.335s, 030.2C,00002195
2016-06-26 02:40:17 r, 15.60m,0000000050Hz,0000009132c,0000000.020s, 030.2C,00002195
2016-06-26 02:50:17 r, 15.74m,0000000045Hz,0000010345c,0000000.022s, 030.6C,00002195
2016-06-26 03:00:17 r, 16.90m,0000000016Hz,0000029911c,0000000.065s, 030.6C,00002195
2016-06-26 03:10:17 r, 17.30m,0000000010Hz,0000043456c,0000000.094s, 030.6C,00002195
2016-06-26 03:20:19 r, 17.41m,0000000010Hz,0000047994c,0000000.104s, 030.6C,00002195
2016-06-26 03:30:17 r, 17.84m,0000000006Hz,0000071200c,0000000.155s, 030.6C,00002195
2016-06-26 03:40:18 r, 18.19m,0000000005Hz,0000098777c,0000000.214s, 030.2C,00002195
2016-06-26 03:50:17 r, 17.88m,0000000006Hz,0000073847c,0000000.160s, 030.2C,00002195
2016-06-26 04:00:17 r, 17.39m,0000000009Hz,0000046985c,0000000.102s, 030.2C,00002195
2016-06-26 04:10:18 r, 16.70m,0000000018Hz,0000025052c,0000000.054s, 029.9C,00002195
2016-06-26 04:20:17 r, 15.58m,0000000051Hz,0000008940c,0000000.019s, 029.9C,00002195
2016-06-26 04:30:19 r, 13.96m,0000000232Hz,0000000000c,0000000.000s, 029.9C,00002195
2016-06-26 04:40:18 r, 12.77m,0000000695Hz,0000000000c,0000000.000s, 029.9C,00002195
2016-06-26 04:50:17 r, 11.45m,0000002336Hz,0000000000c,0000000.000s, 029.9C,00002195
2016-06-26 05:00:17 r, 09.94m,0000009415Hz,0000000000c,0000000.000s, 030.2C,00002195
2016-06-26 05:10:18 r, 08.62m,0000031786Hz,0000000000c,0000000.000s, 030.6C,00002195
2016-06-26 05:20:17 r, 07.82m,0000066443Hz,0000000000c,0000000.000s, 030.6C,00002195
2016-06-26 05:30:18 r, 07.73m,0000071795Hz,0000000000c,0000000.000s, 030.9C,00002195
2016-06-26 05:40:18 r, 07.06m,0000134023Hz,0000000000c,0000000.000s, 031.2C,00002195
2016-06-26 05:50:17 r, 06.49m,0000226201Hz,0000000000c,0000000.000s, 031.2C,00002195
2016-06-26 06:00:18 r, 06.88m,0000158366Hz,0000000000c,0000000.000s, 031.2C,00002195
2016-06-26 06:10:17 r, 06.73m,0000180906Hz,0000000000c,0000000.000s, 030.9C,00002195
2016-06-26 06:20:18 r, 06.08m,0000331258Hz,0000000000c,0000000.000s, 030.6C,00002195
2016-06-26 06:30:17 r, 00.00m,0000454650Hz,0000000000c,0000000.000s, 030.6C,00002195
2016-06-26 06:40:17 r, 00.00m,0000564200Hz,0000000000c,0000000.000s, 030.6C,00002195
2016-06-26 06:50:17 r, 00.00m,0000564186Hz,0000000000c,0000000.000s, 030.6C,00002195
2016-06-26 07:00:17 r, 00.00m,0000564165Hz,0000000000c,0000000.000s, 030.6C,00002195
2016-06-26 07:10:18 r, 06.13m,0000316629Hz,0000000000c,0000000.000s, 030.6C,00002195
2016-06-26 07:20:18 r, 00.00m,0000564167Hz,0000000000c,0000000.000s, 030.6C,00002195
2016-06-26 07:30:17 r, 00.00m,0000511539Hz,0000000000c,0000000.000s, 030.6C,00002195
2016-06-26 07:40:17 r, 00.00m,0000564168Hz,0000000000c,0000000.000s, 030.6C,00002195
2016-06-26 07:50:18 r, 00.00m,0000564211Hz,0000000000c,0000000.000s, 031.2C,00002195
2016-06-26 08:00:17 r, 00.00m,0000564319Hz,0000000000c,0000000.000s, 031.2C,00002195
2016-06-26 08:10:19 r, 00.00m,0000564277Hz,0000000000c,0000000.000s, 031.5C,00002195
2016-06-26 08:20:18 r, 00.00m,0000564305Hz,0000000000c,0000000.000s, 031.5C,00002195
2016-06-26 08:30:18 r, 00.00m,0000509045Hz,0000000000c,0000000.000s, 031.2C,00002195
2016-06-26 08:40:18 r, 00.00m,0000564180Hz,0000000000c,0000000.000s, 030.9C,00002195
2016-06-26 08:50:18 r, 00.00m,0000564219Hz,0000000000c,0000000.000s, 030.9C,00002195
2016-06-26 09:00:17 r, 00.00m,0000564296Hz,0000000000c,0000000.000s, 030.9C,00002195
2016-06-26 09:10:17 r, 00.00m,0000564258Hz,0000000000c,0000000.000s, 030.6C,00002195
2016-06-26 09:20:18 r, 00.00m,0000564205Hz,0000000000c,0000000.000s, 030.9C,00002195
2016-06-26 09:30:17 r, 00.00m,0000564239Hz,0000000000c,0000000.000s, 030.6C,00002195
2016-06-26 09:40:18 r, 00.00m,0000564318Hz,0000000000c,0000000.000s, 030.9C,00002195
2016-06-26 09:50:17 r, 00.00m,0000564419Hz,0000000000c,0000000.000s, 031.5C,00002195
2016-06-26 10:00:17 r, 00.00m,0000564437Hz,0000000000c,0000000.000s, 031.9C,00002195
2016-06-26 10:10:17 r, 00.00m,0000564533Hz,0000000000c,0000000.000s, 032.5C,00002195
2016-06-26 10:20:17 r, 00.00m,0000564554Hz,0000000000c,0000000.000s, 033.1C,00002195
2016-06-26 10:30:17 r, 00.00m,0000564487Hz,0000000000c,0000000.000s, 033.1C,00002195
2016-06-26 10:40:17 r, 00.00m,0000564631Hz,0000000000c,0000000.000s, 034.1C,00002195
2016-06-26 10:50:17 r, 00.00m,0000564729Hz,0000000000c,0000000.000s, 034.4C,00002195
2016-06-26 11:00:17 r, 00.00m,0000564741Hz,0000000000c,0000000.000s, 034.4C,00002195
2016-06-26 11:10:20 r, 00.00m,0000564841Hz,0000000000c,0000000.000s, 035.4C,00002195
2016-06-26 11:20:17 r, 00.00m,0000564852Hz,0000000000c,0000000.000s, 035.7C,00002195
2016-06-26 11:30:18 r, 00.00m,0000564838Hz,0000000000c,0000000.000s, 036.0C,00002195
2016-06-26 11:40:19 r, 00.00m,0000565125Hz,0000000000c,0000000.000s, 037.3C,00002195
2016-06-26 11:50:17 r, 00.00m,0000565041Hz,0000000000c,0000000.000s, 037.7C,00002195
2016-06-26 12:00:17 r, 00.00m,0000565254Hz,0000000000c,0000000.000s, 039.0C,00002195
2016-06-26 12:10:18 r, 00.00m,0000565194Hz,0000000000c,0000000.000s, 039.0C,00002195
2016-06-26 12:20:17 r, 00.00m,0000565128Hz,0000000000c,0000000.000s, 038.3C,00002195
2016-06-26 12:30:18 r, 00.00m,0000564839Hz,0000000000c,0000000.000s, 036.7C,00002195
2016-06-26 12:40:17 r, 00.00m,0000564976Hz,0000000000c,0000000.000s, 036.7C,00002195
2016-06-26 12:50:17 r, 00.00m,0000565052Hz,0000000000c,0000000.000s, 037.7C,00002195
2016-06-26 13:00:17 r, 00.00m,0000564967Hz,0000000000c,0000000.000s, 037.0C,00002195
2016-06-26 13:10:17 r, 00.00m,0000564827Hz,0000000000c,0000000.000s, 035.7C,00002195
2016-06-26 13:20:17 r, 00.00m,0000564673Hz,0000000000c,0000000.000s, 034.4C,00002195
2016-06-26 13:30:18 r, 00.00m,0000564571Hz,0000000000c,0000000.000s, 033.5C,00002195
2016-06-26 13:40:18 r, 00.00m,0000564559Hz,0000000000c,0000000.000s, 033.5C,00002195
2016-06-26 13:50:17 r, 00.00m,0000564541Hz,0000000000c,0000000.000s, 033.5C,00002195
2016-06-26 14:00:17 r, 00.00m,0000564556Hz,0000000000c,0000000.000s, 033.1C,00002195
2016-06-26 14:10:18 r, 00.00m,0000564644Hz,0000000000c,0000000.000s, 033.5C,00002195
2016-06-26 14:20:17 r, 00.00m,0000564640Hz,0000000000c,0000000.000s, 033.5C,00002195
2016-06-26 14:30:17 r, 00.00m,0000564550Hz,0000000000c,0000000.000s, 033.1C,00002195
2016-06-26 14:40:17 r, 00.00m,0000564504Hz,0000000000c,0000000.000s, 032.5C,00002195
2016-06-26 14:50:17 r, 00.00m,0000564516Hz,0000000000c,0000000.000s, 032.2C,00002195
2016-06-26 15:00:18 r, 00.00m,0000564479Hz,0000000000c,0000000.000s, 032.2C,00002195
2016-06-26 15:10:20 r, 00.00m,0000564546Hz,0000000000c,0000000.000s, 032.5C,00002195
2016-06-26 15:20:17 r, 00.00m,0000564569Hz,0000000000c,0000000.000s, 032.8C,00002195
2016-06-26 15:30:17 r, 00.00m,0000564666Hz,0000000000c,0000000.000s, 033.1C,00002195
2016-06-26 15:40:18 r, 00.00m,0000564892Hz,0000000000c,0000000.000s, 035.1C,00002195
2016-06-26 15:50:18 r, 00.00m,0000564683Hz,0000000000c,0000000.000s, 034.4C,00002195
2016-06-26 16:00:17 r, 00.00m,0000564623Hz,0000000000c,0000000.000s, 034.1C,00002195
2016-06-26 16:10:17 r, 00.00m,0000564711Hz,0000000000c,0000000.000s, 034.8C,00002195
2016-06-26 16:20:17 r, 00.00m,0000564756Hz,0000000000c,0000000.000s, 034.8C,00002195
2016-06-26 16:30:17 r, 00.00m,0000564992Hz,0000000000c,0000000.000s, 036.0C,00002195
2016-06-26 16:40:18 r, 00.00m,0000565073Hz,0000000000c,0000000.000s, 037.7C,00002195
2016-06-26 16:50:17 r, 00.00m,0000565162Hz,0000000000c,0000000.000s, 038.3C,00002195
2016-06-26 17:00:19 r, 00.00m,0000565084Hz,0000000000c,0000000.000s, 037.7C,00002195
2016-06-26 17:10:17 r, 00.00m,0000564955Hz,0000000000c,0000000.000s, 037.0C,00002195
2016-06-26 17:20:17 r, 00.00m,0000564882Hz,0000000000c,0000000.000s, 035.7C,00002195
2016-06-26 17:30:18 r, 00.00m,0000564864Hz,0000000000c,0000000.000s, 035.7C,00002195
2016-06-26 17:40:17 r, 00.00m,0000564862Hz,0000000000c,0000000.000s, 035.4C,00002195
2016-06-26 17:50:17 r, 00.00m,0000564916Hz,0000000000c,0000000.000s, 035.7C,00002195
2016-06-26 18:00:17 r, 00.00m,0000564934Hz,0000000000c,0000000.000s, 035.4C,00002195
2016-06-26 18:10:18 r, 00.00m,0000564742Hz,0000000000c,0000000.000s, 034.8C,00002195
2016-06-26 18:20:17 r, 00.00m,0000564544Hz,0000000000c,0000000.000s, 033.5C,00002195
2016-06-26 18:30:18 r, 00.00m,0000564552Hz,0000000000c,0000000.000s, 033.1C,00002195
2016-06-26 18:40:17 r, 00.00m,0000564541Hz,0000000000c,0000000.000s, 032.8C,00002195
2016-06-26 18:50:17 r, 00.00m,0000564436Hz,0000000000c,0000000.000s, 032.2C,00002195
2016-06-26 19:00:18 r, 00.00m,0000564426Hz,0000000000c,0000000.000s, 031.9C,00002195
2016-06-26 19:10:18 r, 00.00m,0000564490Hz,0000000000c,0000000.000s, 031.9C,00002195
2016-06-26 19:20:17 r, 00.00m,0000564542Hz,0000000000c,0000000.000s, 031.5C,00002195
2016-06-26 19:30:17 r, 00.00m,0000564491Hz,0000000000c,0000000.000s, 031.5C,00002195
2016-06-26 19:40:20 r, 00.00m,0000564400Hz,0000000000c,0000000.000s, 030.9C,00002195
2016-06-26 19:50:17 r, 00.00m,0000564308Hz,0000000000c,0000000.000s, 030.6C,00002195
2016-06-26 20:00:20 r, 00.00m,0000564271Hz,0000000000c,0000000.000s, 030.2C,00002195
2016-06-26 20:10:18 r, 00.00m,0000564448Hz,0000000000c,0000000.000s, 030.6C,00002195
2016-06-26 20:20:18 r, 00.00m,0000564387Hz,0000000000c,0000000.000s, 030.6C,00002195
2016-06-26 20:30:17 r, 00.00m,0000564344Hz,0000000000c,0000000.000s, 030.2C,00002195
2016-06-26 20:40:18 r, 00.00m,0000402263Hz,0000000000c,0000000.000s, 030.2C,00002195
2016-06-26 20:50:17 r, 06.08m,0000329254Hz,0000000000c,0000000.000s, 029.6C,00002195
2016-06-26 21:00:18 r, 06.22m,0000292328Hz,0000000000c,0000000.000s, 029.6C,00002195
2016-06-26 21:10:17 r, 06.11m,0000320612Hz,0000000000c,0000000.000s, 029.3C,00002195
2016-06-26 21:20:17 r, 07.16m,0000121197Hz,0000000000c,0000000.000s, 029.6C,00002195
2016-06-26 21:30:17 r, 08.13m,0000049725Hz,0000000000c,0000000.000s, 029.3C,00002195
2016-06-26 21:40:17 r, 08.23m,0000045126Hz,0000000000c,0000000.000s, 029.3C,00002195
2016-06-26 21:50:18 r, 08.85m,0000025672Hz,0000000000c,0000000.000s, 029.0C,00002195
2016-06-26 22:00:17 r, 10.44m,0000005949Hz,0000000000c,0000000.000s, 028.6C,00002195
2016-06-26 22:10:17 r, 11.65m,0000001943Hz,0000000000c,0000000.000s, 028.3C,00002195
2016-06-26 22:20:17 r, 12.80m,0000000673Hz,0000000000c,0000000.000s, 028.6C,00002195
2016-06-26 22:30:17 r, 14.05m,0000000214Hz,0000000000c,0000000.000s, 028.6C,00002195
2016-06-26 22:40:17 r, 14.85m,0000000101Hz,0000004544c,0000000.010s, 028.6C,00002195
2016-06-26 22:50:18 r, 15.36m,0000000064Hz,0000007270c,0000000.016s, 028.6C,00002195
2016-06-26 23:00:17 r, 15.46m,0000000059Hz,0000007937c,0000000.017s, 028.6C,00002195
2016-06-26 23:10:17 r, 15.64m,0000000049Hz,0000009383c,0000000.020s, 028.3C,00002195
2016-06-26 23:20:17 r, 15.69m,0000000047Hz,0000009886c,0000000.021s, 028.3C,00002195
2016-06-26 23:30:18 r, 15.71m,0000000046Hz,0000010019c,0000000.022s, 028.3C,00002195
2016-06-26 23:40:17 r, 16.53m,0000000023Hz,0000021431c,0000000.047s, 028.3C,00002195
2016-06-26 23:50:18 r, 16.48m,0000000022Hz,0000020417c,0000000.044s, 028.3C,00002195
